Time,TemperatureF,DewpointF,PressureIn,WindDirection,WindDirectionDegrees,WindSpeedMPH,WindSpeedGustMPH,Humidity,HourlyPrecipIn,Conditions,Clouds,dailyrainin,SoftwareType,DateUTC
2013-05-05 09:10:00,57.6,51.7,30.32,South,173,7.0,7.0,81,0.00,,FEW020,0.00,VWS V14.01,2013-05-05 13:10:00,
2013-05-05 09:15:00,55.4,51.5,30.32,ESE,114,3.5,7.0,86,0.00,,FEW020,0.00,VWS V14.01,2013-05-05 13:15:00,
2013-05-05 09:21:00,55.5,50.9,30.33,ESE,117,6.0,8.7,85,0.00,,SCT250,0.00,VWS V14.01,2013-05-05 13:21:00,
2013-05-05 09:25:00,56.0,50.8,30.33,NE,55,5.0,9.4,83,0.00,,SCT250,0.00,VWS V14.01,2013-05-05 13:25:00,
2013-05-05 09:29:00,55.2,51.4,30.33,SSW,200,7.1,8.2,87,0.00,,SCT250,0.00,VWS V14.01,2013-05-05 13:29:00,
2013-05-05 09:33:00,53.8,49.3,30.32,ENE,60,6.5,8.2,85,0.00,,SCT250,0.00,VWS V14.01,2013-05-05 13:33:00,
2013-05-05 09:39:00,54.1,50.0,30.33,ESE,107,6.8,9.1,86,0.00,,SCT250,0.00,VWS V14.01,2013-05-05 13:39:00,
2013-05-05 09:45:00,55.2,49.4,30.32,NNE,13,7.0,8.5,81,0.00,,SCT250,0.00,VWS V14.01,2013-05-05 13:45:00,
2013-05-05 09:51:00,53.8,50.6,30.33,East,90,7.1,11.3,89,0.00,,SCT250,0.00,VWS V14.01,2013-05-05 13:51:00,
2013-05-05 09:57:00,57.7,52.7,30.32,South,191,7.4,10.5,83,0.00,,SCT250,0.00,VWS V14.01,2013-05-05 13:57:00,
2013-05-05 10:03:00,56.0,50.3,30.32,ESE,118,6.9,8.0,81,0.00,,SCT250,0.00,VWS V14.01,2013-05-05 14:03:00,
2013-05-05 10:09:00,57.4,49.4,30.33,SSE,149,7.6,13.4,75,0.00,,SCT250,0.00,VWS V14.01,2013-05-05 14:09:00,
2013-05-05 10:15:00,56.5,50.8,30.33,East,79,2.7,8.8,81,0.00,,SCT250,0.00,VWS V14.01,2013-05-05 14:15:00,
2013-05-05 10:21:00,58.4,49.2,30.33,NE,51,7.3,11.9,72,0.00,,SCT250,0.00,VWS V14.01,2013-05-05 14:21:00,
2013-05-05 10:27:00,53.5,48.8,30.33,East,89,5.2,9.0,84,0.00,,SCT250,0.00,VWS V14.01,2013-05-05 14:27:00,
2013-05-05 10:33:00,55.8,50.0,30.33,East,98,8.0,10.9,81,0.00,,SCT250,0.00,VWS V14.01,2013-05-05 14:33:00,
2013-05-05 10:39:00,56.5,50.3,30.33,SE,132,5.7,8.3,80,0.00,,SCT250,0.00,VWS V14.01,2013-05-05 14:39:00,
2013-05-05 10:45:00,59.3,52.6,30.33,SE,131,6.5,8.0,78,0.00,,SCT250,0.00,VWS V14.01,2013-05-05 14:45:00,
2013-05-05 10:51:00,57.2,49.2,30.33,NE,39,6.4,8.9,75,0.00,,SCT250,0.00,VWS V14.01,2013-05-05 14:51:00,
2013-05-05 10:57:00,58.1,50.1,30.33,East,93,7.2,10.3,75,0.00,,SCT250,0.00,VWS V14.01,2013-05-05 14:57:00,
2013-05-05 11:03:00,58.4,49.3,30.33,SSE,153,8.3,8.7,72,0.00,,SCT250,0.00,VWS V14.01,2013-05-05 15:03:00,
2013-05-05 11:09:00,57.0,50.0,30.33,ESE,110,8.7,10.3,77,0.00,,SCT250,0.00,VWS V14.01,2013-05-05 15:09:00,
2013-05-05 11:15:00,55.6,50.1,30.33,ENE,66,7.3,8.1,82,0.00,,SCT250,0.00,VWS V14.01,2013-05-05 15:15:00,
2013-05-05 11:21:00,56.2,49.0,30.33,East,97,6.2,9.5,77,0.00,,SCT250,0.00,VWS V14.01,2013-05-05 15:21:00,
2013-05-05 11:27:00,57.9,49.8,30.33,SE,125,6.5,8.0,74,0.00,,SCT250,0.00,VWS V14.01,2013-05-05 15:27:00,
2013-05-05 11:33:00,59.7,47.6,30.33,SSW,200,4.8,11.6,64,0.00,,SCT250,0.00,VWS V14.01,2013-05-05 15:33:00,
2013-05-05 11:39:00,61.1,49.4,30.33,SE,142,8.6,11.0,65,0.00,,SCT250,0.00,VWS V14.01,2013-05-05 15:39:00,
2013-05-05 11:45:00,58.9,49.0,30.33,ENE,76,4.7,9.6,70,0.00,,SCT250,0.00,VWS V14.01,2013-05-05 15:45:00,
2013-05-05 11:51:00,57.3,48.4,30.33,SE,132,5.5,9.4,72,0.00,,SCT250,0.00,VWS V14.01,2013-05-05 15:51:00,
2013-05-05 11:57:00,58.6,50.0,30.33,SE,143,5.3,8.6,73,0.00,,SCT250,0.00,VWS V14.01,2013-05-05 15:57:00,
2013-05-05 12:03:00,61.0,48.1,30.32,SE,128,6.2,8.1,62,0.00,,SCT250,0.00,VWS V14.01,2013-05-05 16:03:00,
2013-05-05 12:09:00,62.3,48.2,30.33,SSE,150,8.3,11.3,60,0.00,,SCT250,0.00,VWS V14.01,2013-05-05 16:09:00,
2013-05-05 12:15:00,61.7,47.7,30.32,SSE,150,8.0,9.1,60,0.00,,SCT250,0.00,VWS V14.01,2013-05-05 16:15:00,
2013-05-05 12:21:00,61.3,47.3,30.32,SSW,198,5.5,11.6,60,0.00,,SCT250,0.00,VWS V14.01,2013-05-05 16:21:00,
2013-05-05 12:27:00,63.7,47.5,30.32,ESE,112,5.3,12.2,56,0.00,,SCT250,0.00,VWS V14.01,2013-05-05 16:27:00,
2013-05-05 12:33:00,61.8,45.9,30.32,ESE,117,6.9,9.1,56,0.00,,SCT250,0.00,VWS V14.01,2013-05-05 16:33:00,
2013-05-05 12:39:00,62.1,48.2,30.32,SSW,210,5.8,12.4,60,0.00,,SCT250,0.00,VWS V14.01,2013-05-05 16:39:00,
2013-05-05 12:45:00,61.6,46.4,30.33,SSE,156,7.9,9.5,57,0.00,,SCT250,0.00,VWS V14.01,2013-05-05 16:45:00,
2013-05-05 12:51:00,59.9,44.6,30.32,NE,53,3.4,7.3,57,0.00,,SCT250,0.00,VWS V14.01,2013-05-05 16:51:00,
2013-05-05 12:57:00,59.2,47.0,30.32,NE,51,5.7,8.1,64,0.00,,SCT250,0.00,VWS V14.01,2013-05-05 16:57:00,
2013-05-05 13:03:00,59.5,44.1,30.32,SE,124,3.8,8.3,57,0.00,,SCT250,0.00,VWS V14.01,2013-05-05 17:03:00,
2013-05-05 13:09:00,60.3,44.0,30.32,East,89,6.0,9.1,55,0.00,,SCT250,0.00,VWS V14.01,2013-05-05 17:09:00,
2013-05-05 13:15:00,61.8,47.3,30.32,SSE,162,8.2,15.3,59,0.00,,SCT250,0.00,VWS V14.01,2013-05-05 17:15:00,
2013-05-05 13:21:00,60.9,46.8,30.32,SE,127,7.4,9.0,60,0.00,,SCT250,0.00,VWS V14.01,2013-05-05 17:21:00,
2013-05-05 13:27:00,61.0,43.8,30.32,East,101,8.5,8.5,53,0.00,,SCT250,0.00,VWS V14.01,2013-05-05 17:27:00,
2013-05-05 13:33:00,60.3,44.7,30.32,NE,37,5.0,10.2,56,0.00,,SCT250,0.00,VWS V14.01,2013-05-05 17:33:00,
2013-05-05 13:39:00,59.8,45.5,30.32,ESE,110,5.7,6.8,59,0.00,,SCT250,0.00,VWS V14.01,2013-05-05 17:39:00,
2013-05-05 13:45:00,62.9,45.0,30.32,NE,42,5.6,11.8,52,0.00,,SCT250,0.00,VWS V14.01,2013-05-05 17:45:00,
2013-05-05 13:51:00,60.4,46.8,30.32,South,180,6.4,11.8,61,0.00,,SCT250,0.00,VWS V14.01,2013-05-05 17:51:00,
2013-05-05 13:57:00,62.4,45.7,30.32,ESE,121,5.0,6.9,54,0.00,,SCT250,0.00,VWS V14.01,2013-05-05 17:57:00,
2013-05-05 14:03:00,64.0,43.9,30.31,SSE,163,11.1,11.1,48,0.00,,SCT250,0.00,VWS V14.01,2013-05-05 18:03:00,
2013-05-05 14:09:00,61.8,44.0,30.32,SE,139,5.9,8.8,52,0.00,,SCT250,0.00,VWS V14.01,2013-05-05 18:09:00,
2013-05-05 14:15:00,62.0,44.3,30.32,ESE,104,6.3,7.7,52,0.00,,SCT250,0.00,VWS V14.01,2013-05-05 18:15:00,
2013-05-05 14:21:00,63.5,40.9,30.32,ENE,68,5.4,8.4,44,0.00,,SCT250,0.00,VWS V14.01,2013-05-05 18:21:00,
2013-05-05 14:27:00,63.6,42.9,30.31,SE,142,3.9,11.3,47,0.00,,SCT250,0.00,VWS V14.01,2013-05-05 18:27:00,
2013-05-05 14:33:00,59.7,42.9,30.31,ESE,103,6.0,8.5,54,0.00,,SCT250,0.00,VWS V14.01,2013-05-05 18:33:00,
2013-05-05 14:39:00,62.5,43.2,30.31,SE,125,5.0,8.4,49,0.00,,SCT250,0.00,VWS V14.01,2013-05-05 18:39:00,
2013-05-05 14:45:00,63.7,42.7,30.31,ENE,77,7.6,7.9,46,0.00,,SCT250,0.00,VWS V14.01,2013-05-05 18:45:00,
2013-05-05 14:51:00,61.8,43.1,30.31,SE,138,6.4,10.8,50,0.00,,SCT250,0.00,VWS V14.01,2013-05-05 18:51:00,
2013-05-05 14:57:00,59.4,45.9,30.31,ENE,63,6.2,6.8,61,0.00,,SCT250,0.00,VWS V14.01,2013-05-05 18:57:00,
2013-05-05 15:03:00,58.1,47.8,30.31,ESE,120,4.7,11.4,68,0.00,,SCT250,0.00,VWS V14.01,2013-05-05 19:03:00,
2013-05-05 15:09:00,58.4,46.1,30.30,SE,129,6.7,11.8,64,0.00,,SCT250,0.00,VWS V14.01,2013-05-05 19:09:00,
2013-05-05 15:15:00,59.7,42.4,30.30,South,172,11.2,11.2,53,0.00,,SCT250,0.00,VWS V14.01,2013-05-05 19:15:00,
2013-05-05 15:21:00,58.3,45.6,30.30,SSE,159,11.0,11.0,62,0.00,,SCT250,0.00,VWS V14.01,2013-05-05 19:21:00,
2013-05-05 15:27:00,59.8,44.0,30.30,ENE,70,7.5,7.5,56,0.00,,SCT250,0.00,VWS V14.01,2013-05-05 19:27:00,
2013-05-05 15:33:00,61.7,43.2,30.30,SSE,162,6.9,10.0,50,0.00,,SCT250,0.00,VWS V14.01,2013-05-05 19:33:00,
2013-05-05 15:39:00,59.5,45.8,30.30,South,172,4.1,7.9,60,0.00,,SCT250,0.00,VWS V14.01,2013-05-05 19:39:00,
2013-05-05 15:45:00,59.4,44.0,30.30,East,93,5.9,8.3,56,0.00,,SCT250,0.00,VWS V14.01,2013-05-05 19:45:00,
2013-05-05 15:51:00,60.0,42.6,30.30,East,84,4.8,10.8,53,0.00,,SCT250,0.00,VWS V14.01,2013-05-05 19:51:00,
2013-05-05 15:57:00,59.4,43.9,30.30,SE,128,4.4,11.3,56,0.00,,SCT250,0.00,VWS V14.01,2013-05-05 19:57:00,
2013-05-05 16:03:00,57.4,43.5,30.29,NE,37,2.5,10.2,60,0.00,,SCT250,0.00,VWS V14.01,2013-05-05 20:03:00,
2013-05-05 16:09:00,56.6,45.3,30.30,East,101,2.5,8.3,66,0.00,,SCT250,0.00,VWS V14.01,2013-05-05 20:09:00,
2013-05-05 16:15:00,58.3,45.1,30.30,ESE,107,4.1,6.5,62,0.00,,SCT250,0.00,VWS V14.01,2013-05-05 20:15:00,
2013-05-05 16:21:00,57.2,47.0,30.29,South,186,6.8,11.9,69,0.00,,SCT250,0.00,VWS V14.01,2013-05-05 20:21:00,
2013-05-05 16:27:00,56.8,45.6,30.29,ESE,104,7.5,8.4,66,0.00,,SCT250,0.00,VWS V14.01,2013-05-05 20:27:00,
2013-05-05 16:33:00,59.1,44.8,30.29,South,181,9.6,11.8,59,0.00,,SCT250,0.00,VWS V14.01,2013-05-05 20:33:00,
2013-05-05 16:39:00,60.4,43.8,30.29,ESE,103,6.3,6.9,54,0.00,,SCT250,0.00,VWS V14.01,2013-05-05 20:39:00,
2013-05-05 16:45:00,59.5,43.6,30.29,SSE,160,10.2,13.6,56,0.00,,SCT250,0.00,VWS V14.01,2013-05-05 20:45:00,
2013-05-05 16:51:00,60.5,46.0,30.29,South,173,4.5,7.6,59,0.00,,SCT250,0.00,VWS V14.01,2013-05-05 20:51:00,
2013-05-05 16:57:00,63.4,41.9,30.29,East,94,3.4,6.1,45,0.00,,SCT250,0.00,VWS V14.01,2013-05-05 20:57:00,
2013-05-05 17:03:00,63.3,42.1,30.28,ESE,108,3.9,8.4,46,0.00,,SCT250,0.00,VWS V14.01,2013-05-05 21:03:00,
2013-05-05 17:09:00,63.0,42.0,30.29,NE,37,3.9,8.4,46,0.00,,SCT250,0.00,VWS V14.01,2013-05-05 21:09:00,
2013-05-05 17:15:00,65.0,41.1,30.28,South,177,4.4,9.9,42,0.00,,SCT250,0.00,VWS V14.01,2013-05-05 21:15:00,
2013-05-05 17:21:00,65.0,40.3,30.28,WSW,243,5.0,9.6,40,0.00,,SCT250,0.00,VWS V14.01,2013-05-05 21:21:00,
2013-05-05 17:27:00,63.8,41.3,30.28,SSE,158,2.5,7.0,44,0.00,,SCT250,0.00,VWS V14.01,2013-05-05 21:27:00,
2013-05-05 17:33:00,65.6,41.0,30.28,SSW,194,2.5,7.3,40,0.00,,SCT250,0.00,VWS V14.01,2013-05-05 21:33:00,
2013-05-05 17:39:00,63.2,39.9,30.28,SE,136,4.9,8.1,42,0.00,,SCT250,0.00,VWS V14.01,2013-05-05 21:39:00,
2013-05-05 17:45:00,62.6,41.4,30.28,South,173,8.2,8.8,46,0.00,,SCT250,0.00,VWS V14.01,2013-05-05 21:45:00,
2013-05-05 17:51:00,61.0,40.4,30.28,East,84,4.4,10.1,46,0.00,,SCT250,0.00,VWS V14.01,2013-05-05 21:51:00,
2013-05-05 17:57:00,56.3,45.5,30.28,South,184,2.5,8.6,67,0.00,,SCT250,0.00,VWS V14.01,2013-05-05 21:57:00,
2013-05-05 18:03:00,55.1,45.9,30.28,South,177,9.6,10.4,71,0.00,,FEW250,0.00,VWS V14.01,2013-05-05 22:03:00,
2013-05-05 18:09:00,55.9,44.7,30.28,SE,125,7.4,12.0,66,0.00,,FEW250,0.00,VWS V14.01,2013-05-05 22:09:00,
2013-05-05 18:15:00,55.1,46.1,30.28,South,181,9.3,10.6,72,0.00,,FEW250,0.00,VWS V14.01,2013-05-05 22:15:00,
2013-05-05 18:21:00,53.6,46.3,30.28,South,186,9.3,9.9,76,0.00,,FEW250,0.00,VWS V14.01,2013-05-05 22:21:00,
2013-05-05 18:27:00,53.2,47.2,30.28,South,176,9.3,9.3,80,0.00,,FEW250,0.00,VWS V14.01,2013-05-05 22:27:00,
2013-05-05 18:33:00,51.5,47.7,30.28,SSE,167,6.3,7.0,87,0.00,,FEW250,0.00,VWS V14.01,2013-05-05 22:33:00,
2013-05-05 18:39:00,50.3,48.2,30.28,SSE,162,8.3,10.5,92,0.00,,FEW250,0.00,VWS V14.01,2013-05-05 22:39:00,
2013-05-05 18:45:00,49.8,48.6,30.28,SSW,194,5.9,8.5,96,0.00,,FEW250,0.00,VWS V14.01,2013-05-05 22:45:00,
2013-05-05 18:51:00,49.5,48.5,30.28,SE,128,2.5,9.1,96,0.00,,FEW250,0.00,VWS V14.01,2013-05-05 22:51:00,
2013-05-05 18:57:00,49.3,48.6,30.28,ESE,107,4.2,9.8,97,0.00,,FEW250,0.00,VWS V14.01,2013-05-05 22:57:00,
2013-05-05 19:03:00,48.9,48.3,30.28,SSE,152,7.5,8.5,98,0.00,,FEW250,0.00,VWS V14.01,2013-05-05 23:03:00,
2013-05-05 19:09:00,48.6,48.4,30.28,SSE,150,2.5,6.9,99,0.00,,FEW250,0.00,VWS V14.01,2013-05-05 23:09:00,
2013-05-05 19:15:00,48.5,48.5,30.28,SSE,167,5.8,7.2,100,0.00,,FEW250,0.00,VWS V14.01,2013-05-05 23:15:00,
2013-05-05 19:21:00,48.1,48.1,30.28,ESE,112,2.5,5.9,100,0.00,,FEW250,0.00,VWS V14.01,2013-05-05 23:21:00,
2013-05-05 19:27:00,47.8,47.8,30.28,South,172,6.4,8.2,100,0.00,,FEW250,0.00,VWS V14.01,2013-05-05 23:27:00,
2013-05-05 19:33:00,47.6,47.6,30.28,SE,131,2.5,2.5,100,0.00,,FEW250,0.00,VWS V14.01,2013-05-05 23:33:00,
2013-05-05 19:39:00,47.5,47.5,30.28,SSE,162,2.5,2.5,100,0.00,,FEW250,0.00,VWS V14.01,2013-05-05 23:39:00,
2013-05-05 19:45:00,47.2,47.2,30.28,ESE,122,2.5,5.7,100,0.00,,FEW250,0.00,VWS V14.01,2013-05-05 23:45:00,
2013-05-05 19:51:00,46.9,46.9,30.28,ESE,122,2.5,2.5,100,0.00,,FEW250,0.00,VWS V14.01,2013-05-05 23:51:00,
2013-05-05 19:57:00,46.1,46.1,30.28,ESE,122,2.5,2.5,100,0.00,,FEW250,0.00,VWS V14.01,2013-05-05 23:57:00,
2013-05-05 20:03:00,45.9,45.9,30.28,ESE,122,2.5,2.5,100,0.00,,CLR,0.00,VWS V14.01,2013-05-06 00:03:00,
2013-05-05 20:09:00,45.4,45.4,30.28,ESE,122,2.5,2.5,100,0.00,,CLR,0.00,VWS V14.01,2013-05-06 00:09:00,
2013-05-05 20:15:00,45.2,45.2,30.28,ESE,122,2.5,2.5,100,0.00,,CLR,0.00,VWS V14.01,2013-05-06 00:15:00,
2013-05-05 20:21:00,45.3,45.3,30.28,ESE,122,2.5,2.5,100,0.00,,CLR,0.00,VWS V14.01,2013-05-06 00:21:00,
2013-05-05 20:27:00,45.0,45.0,30.28,ESE,122,2.5,2.5,100,0.00,,CLR,0.00,VWS V14.01,2013-05-06 00:27:00,
2013-05-05 20:33:00,44.6,44.6,30.28,ESE,122,2.5,2.5,100,0.00,,CLR,0.00,VWS V14.01,2013-05-06 00:33:00,
2013-05-05 20:39:00,44.7,44.7,30.29,ESE,122,2.5,2.5,100,0.00,,CLR,0.00,VWS V14.01,2013-05-06 00:39:00,
2013-05-05 20:45:00,44.3,44.3,30.29,ESE,122,2.5,2.5,100,0.00,,CLR,0.00,VWS V14.01,2013-05-06 00:45:00,
2013-05-05 20:51:00,44.4,44.4,30.29,ESE,122,2.5,2.5,100,0.00,,CLR,0.00,VWS V14.01,2013-05-06 00:51:00,
2013-05-05 20:57:00,44.4,44.4,30.29,ESE,122,2.5,2.5,100,0.00,,CLR,0.00,VWS V14.01,2013-05-06 00:57:00,
2013-05-05 21:03:00,44.0,44.0,30.29,ESE,122,2.5,2.5,100,0.00,,CLR,0.00,VWS V14.01,2013-05-06 01:03:00,
2013-05-05 21:09:00,43.8,43.8,30.29,ESE,122,2.5,2.5,100,0.00,,CLR,0.00,VWS V14.01,2013-05-06 01:09:00,
2013-05-05 21:15:00,43.7,43.7,30.29,ESE,122,2.5,2.5,100,0.00,,CLR,0.00,VWS V14.01,2013-05-06 01:15:00,
2013-05-05 21:21:00,43.5,43.5,30.30,ESE,122,2.5,2.5,100,0.00,,CLR,0.00,VWS V14.01,2013-05-06 01:21:00,
2013-05-05 21:27:00,43.8,43.8,30.30,ESE,122,2.5,2.5,100,0.00,,CLR,0.00,VWS V14.01,2013-05-06 01:27:00,
2013-05-05 21:33:00,43.6,43.6,30.30,ESE,122,2.5,2.5,100,0.00,,CLR,0.00,VWS V14.01,2013-05-06 01:33:00,
2013-05-05 21:39:00,43.6,43.6,30.30,ESE,122,2.5,2.5,100,0.00,,CLR,0.00,VWS V14.01,2013-05-06 01:39:00,
2013-05-05 21:45:00,43.2,43.2,30.30,ESE,122,2.5,2.5,100,0.00,,CLR,0.00,VWS V14.01,2013-05-06 01:45:00,
2013-05-05 21:51:00,43.0,43.0,30.30,ESE,122,2.5,2.5,100,0.00,,CLR,0.00,VWS V14.01,2013-05-06 01:51:00,
2013-05-05 21:57:00,43.0,43.0,30.29,ESE,122,2.5,2.5,100,0.00,,CLR,0.00,VWS V14.01,2013-05-06 01:57:00,
2013-05-05 22:03:00,43.0,43.0,30.29,ESE,122,2.5,2.5,100,0.00,,CLR,0.00,VWS V14.01,2013-05-06 02:03:00,
2013-05-05 22:09:00,42.6,42.6,30.29,ESE,122,2.5,2.5,100,0.00,,CLR,0.00,VWS V14.01,2013-05-06 02:09:00,
2013-05-05 22:15:00,41.9,41.9,30.29,ESE,122,2.5,2.5,100,0.00,,CLR,0.00,VWS V14.01,2013-05-06 02:15:00,
2013-05-05 22:21:00,41.7,41.7,30.29,ESE,122,2.5,2.5,100,0.00,,CLR,0.00,VWS V14.01,2013-05-06 02:21:00,
2013-05-05 22:27:00,41.9,41.9,30.29,ESE,122,2.5,2.5,100,0.00,,CLR,0.00,VWS V14.01,2013-05-06 02:27:00,
2013-05-05 22:33:00,41.4,41.4,30.29,ESE,122,2.5,2.5,100,0.00,,CLR,0.00,VWS V14.01,2013-05-06 02:33:00,
2013-05-05 22:39:00,41.3,41.3,30.29,ESE,122,2.5,2.5,100,0.00,,CLR,0.00,VWS V14.01,2013-05-06 02:39:00,
2013-05-05 22:45:00,41.3,41.3,30.29,ESE,122,2.5,2.5,100,0.00,,CLR,0.00,VWS V14.01,2013-05-06 02:45:00,
2013-05-05 22:51:00,41.2,41.2,30.28,ESE,122,2.5,2.5,100,0.00,,CLR,0.00,VWS V14.01,2013-05-06 02:51:00,
2013-05-05 22:57:00,41.1,41.1,30.28,ESE,122,2.5,2.5,100,0.00,,CLR,0.00,VWS V14.01,2013-05-06 02:57:00,
2013-05-05 23:03:00,40.9,40.9,30.28,ESE,122,2.5,2.5,100,0.00,,CLR,0.00,VWS V14.01,2013-05-06 03:03:00,
2013-05-05 23:09:00,40.7,40.7,30.29,ESE,122,2.5,2.5,100,0.00,,CLR,0.00,VWS V14.01,2013-05-06 03:09:00,
2013-05-05 23:15:00,40.5,40.5,30.29,ESE,122,2.5,2.5,100,0.00,,CLR,0.00,VWS V14.01,2013-05-06 03:15:00,
2013-05-05 23:21:00,40.3,40.3,30.28,ESE,122,2.5,2.5,100,0.00,,CLR,0.00,VWS V14.01,2013-05-06 03:21:00,
2013-05-05 23:27:00,40.1,40.1,30.28,ESE,122,2.5,2.5,100,0.00,,CLR,0.00,VWS V14.01,2013-05-06 03:27:00,
2013-05-05 23:33:00,40.0,40.0,30.28,ESE,122,2.5,2.5,100,0.00,,CLR,0.00,VWS V14.01,2013-05-06 03:33:00,
2013-05-05 23:39:00,39.7,39.7,30.29,ESE,122,2.5,2.5,100,0.00,,CLR,0.00,VWS V14.01,2013-05-06 03:39:00,
2013-05-05 23:45:00,39.1,39.1,30.28,ESE,122,2.5,2.5,100,0.00,,CLR,0.00,VWS V14.01,2013-05-06 03:45:00,
2013-05-05 23:51:00,38.7,38.7,30.28,ESE,122,2.5,2.5,100,0.00,,CLR,0.00,VWS V14.01,2013-05-06 03:51:00,
2013-05-05 23:57:00,39.0,39.0,30.28,ESE,122,2.5,2.5,100,0.00,,CLR,0.00,VWS V14.01,2013-05-06 03:57:00,